Location: Sungai Laei
(2.6000°N, 113.7167°E)
Time: 10:29:21
(UTC+00:00)

Cosmos 1452 Rocket - Pass Details

Date: 22 May 2022
Orbit: 768 x 773 km, 74.1° (Epoch: 06 July)

Event Time Altitude Azimuth Distance (km) Brightness Sun altitude
Exits shadow 20:15:54 33° 149° (SSE) 1,281 4.6 -28.2°
Maximum altitude 20:17:41 45° 102° (ESE) 1,045 4.4 -27.8°
Drops below altitude 10° 20:22:40 10° 30° (NNE) 2,309 6.6 -26.7°
Sets 20:25:07 0° 24° (NNE) 3,234 7.4 -26.1°
